Kosmos-1864

operational
NORAD ID: 18160 Int'l Des: 1987-057 Owner: VMF Country: SU
LEOCIRCULARPOLAR

Kosmos-1864について

説明を読み込み中...

リアルタイム位置

3D地球を読み込み中...

次回通過

高度履歴

Altitude vs Time

uPlot chart will show altitude changes over time

軌道要素

1 18160U 87057A 26062.63116363 .00000058 00000-0 44121-4 0 9997
2 18160 82.9290 244.5387 0032892 127.7035 303.1049 13.75806330920344
Epoch: Mar 3, 2026 • Age: 34 hours

現在のステータス

高度 1028.5 km
速度 7.33 km/s
衛星直下点 -74.14°S, 88.5°W
打ち上げ日 Jul 6, 1987
運用期間 38.6 years
タイプ other

技術仕様

分類 Payload
質量 800.00 kg
乾燥質量 800.00 kg
総質量 800.00 kg
長さ 5.00 m
直径 2.10 m
スパン 17.00 m
形状 Cyl + Ant
製造者 OAZ
バスタイプ KAUR-1 11F627
フェーズステータス In Orbit
所有者/国 VMF/SU

大規模コンステレーション

Loading constellations...